Regional Weather Roundup
Issued by NWS

Home | Current Version | Previous Version | Graphics & Text | Print | Product List | Glossary On
Versions: 1 2 3 4 5 6 7 8 9 10 11 12 13 14 15 16 17 18 19 20 21 22 23 24 25 26 27 28 29 30 31 32 33 34 35 36 37 38 39 40 41 42 43 44 45 46 47 48 49 50
000
ASUS43 KLOT 290008
RWRIL

ILLINOIS REGIONAL WEATHER ROUNDUP
NATIONAL WEATHER SERVICE CHICAGO/ROMEOVILLE IL
700 PM CDT FRI AUG 28 2015

NOTE: "FAIR" INDICATES FEW OR NO CLOUDS BELOW 12,000 FEET WITH NO
SIGNIFICANT WEATHER AND/OR OBSTRUCTIONS TO VISIBILITY.

* THESE STATIONS ARE NOT UNDER NWS QUALITY CONTROL. THEY ALSO MAY NOT
  REPORT WEATHER SUCH AS PRECIPITATION OR FOG.

ILZ001-002-007-009-015-016-024-290100-
NORTHWEST ILLINOIS

CITY           SKY/WX    TMP DP  RH WIND       PRES   REMARKS
MOLINE         CLOUDY    71  63  75 SE7       29.98R
6HR MIN TEMP:  68; 6HR MAX TEMP:  73;

STERLING*      CLOUDY    70  63  78 E7        29.99F
SAVANNA*       CLOUDY    68  62  80 NE8       30.01R
$$

ILZ003-004-008-010-011-017-018-290100-
NORTH CENTRAL ILLINOIS

CITY           SKY/WX    TMP DP  RH WIND       PRES   REMARKS
ROCKFORD       CLOUDY    68  61  78 E8        30.06F
6HR MIN TEMP:  68; 6HR MAX TEMP:  70; 6HR PCP: TRACE;

FREEPORT*      CLOUDY    65  62  89 E6        30.07R
ROCHELLE*      CLOUDY    67  63  85 E8        30.04F
DE KALB*       CLOUDY    67  63  87 E7        30.07F
PERU*          CLOUDY    72  62  71 E7        30.03F
$$

ILZ005-006-012>014-019>023-290100-
NORTHEAST ILLINOIS

CITY           SKY/WX    TMP DP  RH WIND       PRES   REMARKS
CHICAGO-OHARE  CLOUDY    72  60  66 SE6       30.06F
6HR MIN TEMP:  71; 6HR MAX TEMP:  72;

CHICAGO-MIDWAY CLOUDY    74  60  61 VRB5      30.06F
6HR MIN TEMP:  74; 6HR MAX TEMP:  76; 6HR PCP: TRACE;

AURORA         CLOUDY    69  64  84 E5        30.06F
6HR MIN TEMP:  69; 6HR MAX TEMP:  72;

LANSING*       CLOUDY    71  62  72 E5        30.06F
JOLIET*        CLOUDY    72  65  77 E7        30.04F
WAUKEGAN       LGT RAIN  65  61  87 CALM      30.08R
6HR MIN TEMP:  65; 6HR MAX TEMP:  71; 6HR PCP: TRACE;

DUPAGE AIRPORT CLOUDY    70  61  73 E3        30.06S
6HR MIN TEMP:  69; 6HR MAX TEMP:  71;

KANKAKEE*      CLOUDY    72  64  76 CALM      30.07S
WHEELING       CLOUDY    70  59  68 E3        30.08S
6HR MIN TEMP:  70; 6HR MAX TEMP:  72;

MORRIS*        CLOUDY    70  64  81 CALM      30.04S
ROMEOVILLE*    CLOUDY    70  62  75 E7        30.05F
NORTHERLY ISL    N/A     68  62  81 CALM        N/A
$$

LMZ740>746-290100-
SOUTHERN LAKE MICHIGAN

STATION/POSITION SKY/WX   TEMP    WIND        PRES    VSBY  WAVE
                          AIR SEA DIR/SP/G                  HT/PER
                          (F)     (DEG/KT/KT) (MB)    (MI)  (FT/S)
SOUTHERN BUOY              68 69  110/  6/  8 1018.1F         1
WILMETTE HARBOR            65 60  190/  2/  4   N/A           0
HARRISON CRIB              70      90/  8/  8   N/A
BURNHAM HARBOR             67     340/  1/  2   N/A
BURNS HARBOR               71      70/  9/ 10 1018.6F
MICHIGAN CITY              70      40/  7/  7   N/A
MICHIGAN CITY 6N           71 71   90/  6/  8   N/A           0
ST. JOSEPH                 71 71  100/  8/  8   N/A           0
$$

ILZ025>027-034>036-040-047-049-050-058-095>099-290100-
WEST-CENTRAL ILLINOIS

CITY           SKY/WX    TMP DP  RH WIND       PRES   REMARKS
QUINCY         CLOUDY    74  62  66 S9        29.96F
GALESBURG*     CLOUDY    69  62  77 SE6       29.98F
MACOMB*        CLOUDY    72  62  71 SE7       30.00S
JACKSONVILLE*  CLOUDY    75  63  65 SE8       29.99F
PITTSFIELD*    CLOUDY    74  62  65 SE6       29.99F
$$

ILZ028>032-037-038-041>044-048-051>054-059>061-290100-
CENTRAL ILLINOIS

CITY           SKY/WX    TMP DP  RH WIND       PRES   REMARKS
PONTIAC        CLOUDY    72  66  82 SE3       30.05R
BLOOMINGTON    CLOUDY    73  62  68 S9        30.05F
DECATUR        CLOUDY    75  59  57 SE8       30.03F
PEORIA         CLOUDY    75  60  59 SE6       30.01F
6HR MIN TEMP:  75; 6HR MAX TEMP:  77;

LACON*         CLOUDY    71  63  74 SE5       30.01F
LINCOLN*       CLOUDY    76  58  53 S7        30.02S
SPRINGFIELD    CLOUDY    76  59  55 SE14G20   30.01F
6HR MIN TEMP:  76; 6HR MAX TEMP:  82;

TAYLORVILLE    CLOUDY    72  61  68 SE5       30.02F
$$

ILZ033-039-045-046-055>057-062-063-290100-
EAST-CENTRAL ILLINOIS

CITY           SKY/WX    TMP DP  RH WIND       PRES   REMARKS
CHAMPAIGN      CLOUDY    73  60  63 SE5       30.05F
RANTOUL*       CLOUDY    74  62  65 SE6       30.05F
MATTOON        MOCLDY    73  57  57 SE5       30.04F
PARIS*         MOCLDY    72  61  69 E3        30.07F
$$

ILZ079-100>102-290100-
SOUTHWEST ILLINOIS

CITY           SKY/WX    TMP DP  RH WIND       PRES   REMARKS
BELLEVILLE     MOCLDY    74  64  70 E2        30.00F
CAHOKIA*       CLOUDY    76  62  62 SE5       30.00F
SPARTA*        MOCLDY    74  64  69 CALM      30.04S
$$

ILZ064>066-069>071-074>076-080>082-084>086-088>090-092>094-290100-
SOUTH-CENTRAL ILLINOIS

CITY           SKY/WX    TMP DP  RH WIND       PRES   REMARKS
CARBONDALE     CLEAR     75  65  70 CALM      30.03S
6HR MIN TEMP:  75; 6HR MAX TEMP:  81;

CAIRO*         PTCLDY    79  69  71 CALM      30.02S HX  82
EFFINGHAM*     PTCLDY    72  58  62 CALM      30.06S
MARION         CLEAR     79  64  61 CALM      30.04F HX  81
MT. VERNON     CLEAR     77  59  53 CALM      30.05S
SALEM*         PTCLDY    76  59  55 CALM      30.03F
METROPOLIS*    PTCLDY    79  69  71 CALM      30.03S HX  82
$$

ILZ067-068-072-073-078-083-087-091-290100-
SOUTHEAST ILLINOIS

CITY           SKY/WX    TMP DP  RH WIND       PRES   REMARKS
LAWRENCEVILLE  PTCLDY    73  63  70 SE6       30.06F
FLORA*         PTCLDY    74  59  59 SE5       30.05F
FAIRFIELD*     CLEAR     74  64  72 CALM      30.04S
HARRISBURG*    PTCLDY    78  66  67 CALM      30.04S
ROBINSON*      PTCLDY    73  61  65 SE5       30.06F
CARMI*         PTCLDY    76  67  72 CALM      30.04S
$$

ABBREVIATIONS USED IN REMARKS
   TC - TEMPERATURE IN CELSIUS
  WCI - WIND CHILL INDEX
   HX - HEAT INDEX
  VSB - VISIBILITY
$$




USA.gov is the U.S. government's official web portal to all federal, state and local government web resources and services.